H1 CPF 2 NER 2025 10 3 9 276 01 glonass129 H2 1106402 9129 37868 2025 10 3 0 0 0 2025 10 6 23 45 0 900 1 1 0 0 0 1 H9 10 0 60951 0.00000 0 13271570.786 15829909.748 -14971325.287 10 0 60951 900.00000 0 14043230.866 17342798.700 -12377138.535 10 0 60951 1800.00000 0 14777603.305 18494396.911 -9542801.556 10 0 60951 2700.00000 0 15415725.518 19276298.269 -6523427.935 10 0 60951 3600.00000 0 15899865.711 19693367.222 -3377641.106 10 0 60951 4500.00000 0 16176102.777 19763315.289 -166436.666 10 0 60951 5400.00000 0 16196756.389 19515756.062 3047995.476 10 0 60951 6300.00000 0 15922565.953 18990780.583 6203466.558 10 0 60951 7200.00000 0 15324527.909 18237114.532 9238979.564 10 0 60951 8100.00000 0 14385315.298 17309935.441 12095892.896 10 0 60951 9000.00000 0 13100220.980 16268441.691 14719035.985 10 0 60951 9900.00000 0 11477585.493 15173274.717 17057756.761 10 0 60951 10800.00000 0 9538691.666 14083901.386 19066882.474 10 0 60951 11700.00000 0 7317129.695 13056064.701 20707577.011 10 0 60951 12600.00000 0 4857657.818 12139407.962 21948079.701 10 0 60951 13500.00000 0 2214604.057 11375370.188 22764312.683 10 0 60951 14400.00000 0 -550127.118 10795439.576 23140345.996 10 0 60951 15300.00000 0 -3369363.212 10419837.269 23068711.792 10 0 60951 16200.00000 0 -6173194.471 10256686.332 22550561.393 10 0 60951 17100.00000 0 -8891624.831 10301701.226 21595661.342 10 0 60951 18000.00000 0 -11457235.562 10538411.991 20222227.122 10 0 60951 18900.00000 0 -13807752.928 10938915.423 18456595.898 10 0 60951 19800.00000 0 -15888414.363 11465123.770 16332742.424 10 0 60951 20700.00000 0 -17654035.074 12070460.590 13891645.161 10 0 60951 21600.00000 0 -19070688.579 12701934.306 11180512.687 10 0 60951 22500.00000 0 -20116930.001 13302503.537 8251883.428 10 0 60951 23400.00000 0 -20784509.486 13813635.111 5162614.761 10 0 60951 24300.00000 0 -21078544.193 14177946.627 1972780.305 10 0 60951 25200.00000 0 -21017140.099 14341820.850 -1255503.316 10 0 60951 26100.00000 0 -20630478.309 14257879.529 -4459296.785 10 0 60951 27000.00000 0 -19959403.716 13887209.501 -7576080.507 10 0 60951 27900.00000 0 -19053575.549 13201244.014 -10544993.213 10 0 60951 28800.00000 0 -17969258.588 12183216.699 -13308040.517 10 0 60951 29700.00000 0 -16766849.702 10829123.889 -15811247.698 10 0 60951 30600.00000 0 -15508245.965 9148152.205 -18005732.184 10 0 60951 31500.00000 0 -14254167.588 7162551.556 -19848672.957 10 0 60951 32400.00000 0 -13061550.711 4906957.716 -21304156.644 10 0 60951 33300.00000 0 -11981121.817 2427192.500 -22343882.912 10 0 60951 34200.00000 0 -11055257.326 -221407.947 -22947715.096 10 0 60951 35100.00000 0 -10316219.180 -2976066.063 -23104065.563 10 0 60951 36000.00000 0 -9784840.553 -5768949.410 -22810109.008 10 0 60951 36900.00000 0 -9469716.153 -8529770.127 -22071820.592 10 0 60951 37800.00000 0 -9366929.598 -11188488.067 -20903839.571 10 0 60951 38700.00000 0 -9460327.271 -13678004.465 -19329162.556 10 0 60951 39600.00000 0 -9722324.698 -15936733.955 -17378673.982 10 0 60951 40500.00000 0 -10115208.984 -17910948.420 -15090524.450 10 0 60951 41400.00000 0 -10592880.081 -19556796.353 -12509370.420 10 0 60951 42300.00000 0 -11102955.427 -20841915.355 -9685491.329 10 0 60951 43200.00000 0 -11589147.675 -21746572.934 -6673802.241 10 0 60951 44100.00000 0 -11993814.244 -22264290.660 -3532781.953 10 0 60951 45000.00000 0 -12260570.781 -22401928.386 -323337.784 10 0 60951 45900.00000 0 -12336858.527 -22179227.783 2892370.846 10 0 60951 46800.00000 0 -12176358.020 -21627836.678 6052127.571 10 0 60951 47700.00000 0 -11741148.442 -20789856.942 9094850.404 10 0 60951 48600.00000 0 -11003522.870 -19715977.998 11961757.192 10 0 60951 49500.00000 0 -9947384.099 -18463274.625 14597483.990 10 0 60951 50400.00000 0 -8569163.254 -17092761.039 16951136.232 10 0 60951 51300.00000 0 -6878222.863 -15666802.759 18977254.107 10 0 60951 52200.00000 0 -4896727.203 -14246493.076 20636675.231 10 0 60951 53100.00000 0 -2658984.220 -12889102.137 21897279.493 10 0 60951 54000.00000 0 -210284.709 -11645703.385 22734603.080 10 0 60951 54900.00000 0 2394715.326 -10559074.851 23132310.719 10 0 60951 55800.00000 0 5094004.709 -9661961.629 23082517.418 10 0 60951 56700.00000 0 7820539.085 -8975771.369 22585953.334 10 0 60951 57600.00000 0 10504781.550 -8509757.131 21651967.753 10 0 60951 58500.00000 0 13077359.193 -8260722.344 20298370.750 10 0 60951 59400.00000 0 15471727.455 -8213261.308 18551113.735 10 0 60951 60300.00000 0 17626733.164 -8340526.750 16443812.869 10 0 60951 61200.00000 0 19488970.244 -8605493.994 14017122.282 10 0 60951 62100.00000 0 21014829.872 -8962670.353 11317966.988 10 0 60951 63000.00000 0 22172158.611 -9360179.226 8398648.428 10 0 60951 63900.00000 0 22941453.748 -9742131.878 5315838.516 10 0 60951 64800.00000 0 23316543.930 -10051186.959 2129480.923 10 0 60951 65700.00000 0 23304724.748 -10231188.866 -1098379.263 10 0 60951 66600.00000 0 22926341.843 -10229771.866 -4304814.103 10 0 60951 67500.00000 0 22213837.950 -10000817.548 -7427254.722 10 0 60951 68400.00000 0 21210303.453 -9506658.844 -10404730.689 10 0 60951 69300.00000 0 19967591.713 -8719934.366 -13179080.623 10 0 60951 70200.00000 0 18544079.534 -7625011.635 -15696108.278 10 0 60951 71100.00000 0 17002168.651 -6218916.335 -17906659.498 10 0 60951 72000.00000 0 15405635.446 -4511726.151 -19767597.173 10 0 60951 72900.00000 0 13816942.562 -2526411.012 -21242653.796 10 0 60951 73800.00000 0 12294627.491 -298125.531 -22303144.112 10 0 60951 74700.00000 0 10890879.521 2127016.839 -22928523.596 10 0 60951 75600.00000 0 9649407.829 4693636.184 -23106782.081 10 0 60951 76500.00000 0 8603690.453 7339173.450 -22834665.566 10 0 60951 77400.00000 0 7775677.077 9996284.460 -22117722.903 10 0 60951 78300.00000 0 7174998.665 12595439.697 -20970177.845 10 0 60951 79200.00000 0 6798715.099 15067620.663 -19414630.439 10 0 60951 80100.00000 0 6631608.842 17346999.992 -17481595.140 10 0 60951 81000.00000 0 6647009.475 19373493.748 -15208886.215 10 0 60951 81900.00000 0 6808111.599 21095080.274 -12640863.756 10 0 60951 82800.00000 0 7069727.988 22469790.170 -9827556.275 10 0 60951 83700.00000 0 7380401.972 23467286.272 -6823677.931 10 0 60951 84600.00000 0 7684788.344 24069969.935 -3687560.200 10 0 60951 85500.00000 0 7926201.438 24273569.910 -480019.221 10 0 60952 0.00000 0 8049222.535 24087191.786 2736818.870 10 0 60952 900.00000 0 8002256.977 23532828.135 5900713.832 10 0 60952 1800.00000 0 7739933.752 22644352.171 8950501.559 10 0 60952 2700.00000 0 7225247.718 21466038.109 11827262.406 10 0 60952 3600.00000 0 6431355.171 20050671.042 14475441.971 10 0 60952 4500.00000 0 5342948.317 18457325.357 16843905.925 10 0 60952 5400.00000 0 3957151.445 16748903.890 18886909.918 10 0 60952 6300.00000 0 2283901.245 14989539.300 20564967.561 10 0 60952 7200.00000 0 345794.640 13241964.458 21845601.300 10 0 60952 8100.00000 0 -1822590.929 11564959.615 22703963.042 10 0 60952 9000.00000 0 -4175878.564 10010980.839 23123313.505 10 0 60952 9900.00000 0 -6659527.791 8624066.923 23095351.449 10 0 60952 10800.00000 0 -9211860.242 7438110.750 22620386.274 10 0 60952 11700.00000 0 -11766394.120 6475566.500 21707349.906 10 0 60952 12600.00000 0 -14254393.348 5746646.606 20373646.356 10 0 60952 13500.00000 0 -16607528.060 5249042.584 18644840.066 10 0 60952 14400.00000 0 -18760537.651 4968182.473 16554186.862 10 0 60952 15300.00000 0 -20653786.633 4878015.550 14142014.321 10 0 60952 16200.00000 0 -22235606.940 4942292.907 11454961.294 10 0 60952 17100.00000 0 -23464328.288 5116291.429 8545089.334 10 0 60952 18000.00000 0 -24309910.312 5348909.553 5468881.820 10 0 60952 18900.00000 0 -24755106.242 5585046.777 2286149.310 10 0 60952 19800.00000 0 -24796107.214 5768166.014 -941137.803 10 0 60952 20700.00000 0 -24442638.087 5842929.287 -4150066.082 10 0 60952 21600.00000 0 -23717499.010 5757793.289 -7278020.407 10 0 60952 22500.00000 0 -22655570.905 5467452.441 -10263924.106 10 0 60952 23400.00000 0 -21302326.277 4935023.116 -13049451.560 10 0 60952 24300.00000 0 -19711908.405 4133873.602 -15580187.547 10 0 60952 25200.00000 0 -17944860.793 3049019.547 -17806708.589 10 0 60952 26100.00000 0 -16065604.002 1678023.461 -19685563.387 10 0 60952 27000.00000 0 -14139767.858 31358.408 -21180131.775 10 0 60952 27900.00000 0 -12231493.033 -1867780.735 -22261344.581 10 0 60952 28800.00000 0 -10400817.021 -3984211.040 -22908249.929 10 0 60952 29700.00000 0 -8701255.341 -6272009.486 -23108415.155 10 0 60952 30600.00000 0 -7177679.891 -8676222.240 -22858157.143 10 0 60952 31500.00000 0 -5864583.129 -11134962.794 -22162597.619 10 0 60952 32400.00000 0 -4784799.654 -13581810.183 -21035543.687 10 0 60952 33300.00000 0 -3948736.928 -15948406.194 -19499197.392 10 0 60952 34200.00000 0 -3354144.847 -18167142.359 -17583701.574 10 0 60952 35100.00000 0 -2986430.935 -20173824.349 -15326532.381 10 0 60952 36000.00000 0 -2819504.772 -21910202.810 -12771751.670 10 0 60952 36900.00000 0 -2817113.143 -23326265.766 -9969135.145 10 0 60952 37800.00000 0 -2934606.977 -24382198.244 -6973194.180 10 0 60952 38700.00000 0 -3121063.424 -25049929.055 -3842111.099 10 0 60952 39600.00000 0 -3321672.051 -25314202.209 -636609.050 10 0 60952 40500.00000 0 -3480283.627 -25173130.462 2581221.471 10 0 60952 41400.00000 0 -3542013.795 -24638210.052 5749116.985 10 0 60952 42300.00000 0 -3455792.221 -23733797.970 8805833.701 10 0 60952 43200.00000 0 -3176750.591 -22496075.129 11692316.396 10 0 60952 44100.00000 0 -2668349.946 -20971539.672 14352822.190 10 0 60952 45000.00000 0 -1904158.902 -19215093.601 16735979.005 10 0 60952 45900.00000 0 -869208.875 -17287802.128 18795759.947 10 0 60952 46800.00000 0 439130.205 -15254418.086 20492356.558 10 0 60952 47700.00000 0 2010790.605 -13180772.963 21792935.638 10 0 60952 48600.00000 0 3823179.935 -11131141.220 22672266.441 10 0 60952 49500.00000 0 5841881.221 -9165685.518 23113207.078 10 0 60952 50400.00000 0 8021853.025 -7338087.178 23107041.200 10 0 60952 51300.00000 0 10309082.497 -5693458.786 22653658.341 10 0 60952 52200.00000 0 12642625.641 -4266624.663 21761573.664 10 0 60952 53100.00000 0 14956952.964 -3080840.253 20447785.435 10 0 60952 54000.00000 0 17184505.686 -2147003.876 18737471.141 10 0 60952 54900.00000 0 19258358.343 -1463394.395 16663525.977 10 0 60952 55800.00000 0 21114878.255 -1015946.840 14265950.320 10 0 60952 56700.00000 0 22696271.521 -779055.752 11591095.823 10 0 60952 57600.00000 0 23952908.873 -716873.832 8690782.712 10 0 60952 58500.00000 0 24845332.879 -785052.312 5621303.963 10 0 60952 59400.00000 0 25345860.593 -932850.305 2442334.736 10 0 60952 60300.00000 0 25439712.203 -1105524.003 -784231.947 10 0 60952 61200.00000 0 25125615.852 -1246893.949 -3995500.115 10 0 60952 62100.00000 0 24415861.072 -1301980.194 -7128811.575 10 0 60952 63000.00000 0 23335796.823 -1219591.586 -10122986.657 10 0 60952 63900.00000 0 21922794.181 -954756.895 -12919538.727 10 0 60952 64800.00000 0 20224716.999 -470891.922 -15463836.674 10 0 60952 65700.00000 0 18297965.294 258391.985 -17706190.603 10 0 60952 66600.00000 0 16205174.712 1247917.098 -19602837.690 10 0 60952 67500.00000 0 14012670.274 2500066.185 -21116807.523 10 0 60952 68400.00000 0 11787783.022 4004445.510 -22218649.138 10 0 60952 69300.00000 0 9596143.821 5738098.957 -22887005.128 10 0 60952 70200.00000 0 7499069.057 7666264.523 -23109021.800 10 0 60952 71100.00000 0 5551148.502 9743641.020 -22880588.010 10 0 60952 72000.00000 0 3798136.337 11916111.074 -22206399.026 10 0 60952 72900.00000 0 2275232.846 14122847.169 -21099845.513 10 0 60952 73800.00000 0 1005827.057 16298711.541 -19582731.278 10 0 60952 74700.00000 0 750.713 18376848.522 -17684826.844 10 0 60952 75600.00000 0 -741928.090 20291360.353 -15443269.097 10 0 60952 76500.00000 0 -1236566.122 21979954.398 -12901820.100 10 0 60952 77400.00000 0 -1509078.633 23386451.386 -10110000.792 10 0 60952 78300.00000 0 -1595584.908 24463050.670 -7122117.468 10 0 60952 79200.00000 0 -1540625.465 25172259.120 -3996200.690 10 0 60952 80100.00000 0 -1395028.157 25488404.646 -792877.775 10 0 60952 81000.00000 0 -1213514.542 25398673.010 2425799.159 10 0 60952 81900.00000 0 -1052148.191 24903626.546 5597547.100 10 0 60952 82800.00000 0 -965732.523 24017184.933 8661045.432 10 0 60952 83700.00000 0 -1005267.350 22766070.326 11557106.459 10 0 60952 84600.00000 0 -1215570.306 21188741.034 14229801.835 10 0 60952 85500.00000 0 -1633162.172 19333858.618 16627524.595 10 0 60953 0.00000 0 -2284503.880 17258352.241 18703967.819 10 0 60953 900.00000 0 -3184658.876 15025158.807 20419003.824 10 0 60953 1800.00000 0 -4336435.788 12700734.235 21739445.789 10 0 60953 2700.00000 0 -5730048.846 10352433.719 22639682.239 10 0 60953 3600.00000 0 -7343310.677 8045870.349 23102170.257 10 0 60953 4500.00000 0 -9142351.547 5842358.606 23117779.568 10 0 60953 5400.00000 0 -11082837.526 3796547.071 22685980.539 10 0 60953 6300.00000 0 -13111639.669 1954337.125 21814871.756 10 0 60953 7200.00000 0 -15168887.684 351173.191 20521045.357 10 0 60953 8100.00000 0 -17190325.417 -989224.757 18829290.911 10 0 60953 9000.00000 0 -19109872.465 -2055633.374 16772141.439 10 0 60953 9900.00000 0 -20862286.823 -2849569.810 14389268.042 10 0 60953 10800.00000 0 -22385818.381 -3384995.993 11726732.634 10 0 60953 11700.00000 0 -23624742.360 -3687494.494 8836111.209 10 0 60953 12600.00000 0 -24531665.739 -3792949.458 5773503.150 10 0 60953 13500.00000 0 -25069508.310 -3745787.355 2598444.867 10 0 60953 14400.00000 0 -25213072.980 -3596851.499 -627251.418 10 0 60953 15300.00000 0 -24950136.765 -3401000.559 -3840710.636 10 0 60953 16200.00000 0 -24282014.047 -3214533.758 -6979234.899 10 0 60953 17100.00000 0 -23223566.142 -3092553.602 -9981544.824 10 0 60953 18000.00000 0 -21802655.057 -3086380.151 -12788995.889 10 0 60953 18900.00000 0 -20059063.422 -3241129.083 -15346744.002 10 0 60953 19800.00000 0 -18042925.769 -3593558.842 -17604835.460 10 0 60953 20700.00000 0 -15812737.617 -4170280.627 -19519198.125 10 0 60953 21600.00000 0 -13433027.044 -4986409.144 -21052513.059 10 0 60953 22500.00000 0 -10971787.872 -6044712.801 -22174948.660 10 0 60953 23400.00000 0 -8497783.644 -7335300.254 -22864742.532 10 0 60953 24300.00000 0 -6077836.643 -8835856.910 -23108619.883 10 0 60953 25200.00000 0 -3774216.375 -10512421.197 -22902040.888 10 0 60953 26100.00000 0 -1642237.056 -12320667.286 -22249273.195 10 0 60953 27000.00000 0 271835.842 -14207639.324 -21163289.444 10 0 60953 27900.00000 0 1932483.742 -16113863.269 -19665493.279 10 0 60953 28800.00000 0 3316168.720 -17975746.584 -17785280.737 10 0 60953 29700.00000 0 4412053.941 -19728164.330 -15559447.112 10 0 60953 30600.00000 0 5222183.710 -21307122.729 -13031452.255 10 0 60953 31500.00000 0 5761118.934 -22652388.498 -10250559.907 10 0 60953 32400.00000 0 6055046.685 -23709974.207 -7270868.873 10 0 60953 33300.00000 0 6140404.377 -24434376.476 -4150255.622 10 0 60953 34200.00000 0 6062079.049 -24790474.495 -949249.406 10 0 60953 35100.00000 0 5871259.577 -24755011.023 2270138.155 10 0 60953 36000.00000 0 5623033.550 -24317595.550 5445606.524 10 0 60953 36900.00000 0 5373830.567 -23481189.336 8515760.147 10 0 60953 37800.00000 0 5178819.526 -22262053.477 11421280.644 10 0 60953 38700.00000 0 5089368.776 -20689163.188 14106055.876 10 0 60953 39600.00000 0 5150674.983 -18803113.220 16518245.554 10 0 60953 40500.00000 0 5399659.184 -16654559.872 18611264.498 10 0 60953 41400.00000 0 5863217.381 -14302263.611 20344666.315 10 0 60953 42300.00000 0 6556898.334 -11810812.306 21684912.052 10 0 60953 43200.00000 0 7484063.840 -9248117.704 22606010.385 10 0 60953 44100.00000 0 8635567.202 -6682786.818 23090018.044 10 0 60953 45000.00000 0 9989964.609 -4181474.937 23127391.275 10 0 60953 45900.00000 0 11514252.583 -1806327.796 22717181.519 10 0 60953 46800.00000 0 13165103.212 387382.898 21867070.828 10 0 60953 47700.00000 0 14890548.458 2353333.840 20593245.057 10 0 60953 48600.00000 0 16632046.113 4055849.001 18920105.514 10 0 60953 49500.00000 0 18326843.800 5471152.497 16879822.503 10 0 60953 50400.00000 0 19910544.328 6588122.782 14511737.094 10 0 60953 51300.00000 0 21319766.497 7408515.776 11861620.465 10 0 60953 52200.00000 0 22494790.422 7946646.446 8980803.095 10 0 60953 53100.00000 0 23382075.968 8228541.016 5925189.208 10 0 60953 54000.00000 0 23936547.257 8290594.449 2754174.580 10 0 60953 54900.00000 0 24123545.163 8177789.257 -470511.530 10 0 60953 55800.00000 0 23920363.075 7941550.817 -3686017.375 10 0 60953 56700.00000 0 23317298.559 7637330.607 -6829607.972 10 0 60953 57600.00000 0 22318173.971 7322020.998 -9839906.905 10 0 60953 58500.00000 0 20940301.846 7051313.085 -12658114.465 10 0 60953 59400.00000 0 19213894.870 6877111.847 -15229176.217 10 0 60953 60300.00000 0 17180944.328 6845120.744 -17502877.167 10 0 60953 61200.00000 0 14893614.046 6992700.537 -19434838.237 10 0 60953 62100.00000 0 12412217.765 7347095.197 -20987394.172 10 0 60953 63000.00000 0 9802865.849 7924101.690 -22130334.760 10 0 60953 63900.00000 0 7134881.244 8727240.975 -22841494.437 10 0 60953 64800.00000 0 4478094.201 9747465.701 -23107178.875 10 0 60953 65700.00000 0 1900129.952 10963416.792 -22922420.821 10 0 60953 66600.00000 0 -536196.662 12342217.414 -22291061.162 10 0 60953 67500.00000 0 -2775270.839 13840769.816 -21225654.932 10 0 60953 68400.00000 0 -4770752.756 15407499.213 -19747205.545 10 0 60953 69300.00000 0 -6487252.647 16984470.053 -17884733.997 10 0 60953 70200.00000 0 -7901538.335 18509784.533 -15674692.955 10 0 60953 71100.00000 0 -9003227.580 19920161.769 -13160238.590 10 0 60953 72000.00000 0 -9794939.470 21153588.779 -10390375.594 10 0 60953 72900.00000 0 -10291901.951 22151931.976 -7418993.114 10 0 60953 73800.00000 0 -10521035.263 22863400.055 -4303811.110 10 0 60953 74700.00000 0 -10519552.729 23244755.789 -1105258.149 10 0 60953 75600.00000 0 -10333140.218 23263185.237 2114697.399 10 0 60953 76500.00000 0 -10013792.579 22897747.464 5293740.314 10 0 60953 77400.00000 0 -9617399.184 22140345.512 8370402.999 10 0 60953 78300.00000 0 -9201180.415 20996179.347 11285239.280 10 0 60953 79200.00000 0 -8821082.617 19483662.836 13981956.084 10 0 60953 80100.00000 0 -8529240.152 17633808.767 16408482.572 10 0 60953 81000.00000 0 -8371610.022 15489107.467 18517957.800 10 0 60953 81900.00000 0 -8385877.099 13101944.975 20269619.555 10 0 60953 82800.00000 0 -8599716.773 10532625.225 21629578.853 10 0 60953 83700.00000 0 -9029487.124 7847076.440 22571466.588 10 0 60953 84600.00000 0 -9679405.324 5114334.607 23076940.881 10 0 60953 85500.00000 0 -10541243.328 2403905.879 23136045.885 10 0 60954 0.00000 0 -11594556.815 -216885.040 22747415.117 10 0 60954 900.00000 0 -12807440.390 -2685454.235 21918314.482 10 0 60954 1800.00000 0 -14137778.486 -4946317.820 20664523.489 10 0 60954 2700.00000 0 -15534944.244 -6953158.997 19010054.549 10 0 60954 3600.00000 0 -16941876.601 -8670514.070 16986714.049 10 0 60954 4500.00000 0 -18297451.496 -10075008.479 14633511.300 10 0 60954 5400.00000 0 -19539049.481 -11156090.389 11995924.524 10 0 60954 6300.00000 0 -20605212.941 -11916230.124 9125036.061 10 0 60954 7200.00000 0 -21438281.356 -12370575.792 6076552.014 10 0 60954 8100.00000 0 -21986892.844 -12546078.442 2909724.331 10 0 60954 9000.00000 0 -22208244.960 -12480122.688 -313804.064 10 0 60954 9900.00000 0 -22070017.084 -12218720.172 -3531208.203 10 0 60954 10800.00000 0 -21551870.595 -11814342.479 -6679719.502 10 0 60954 11700.00000 0 -20646460.696 -11323486.052 -9697868.005 10 0 60954 12600.00000 0 -19359914.572 -10804073.781 -12526702.212 10 0 60954 13500.00000 0 -17711753.546 -10312805.348 -15110960.594 10 0 60954 14400.00000 0 -15734260.933 -9902570.896 -17400169.866 10 0 60954 15300.00000 0 -13471321.420 -9620039.955 -19349646.644 10 0 60954 16200.00000 0 -10976780.633 -9503529.850 -20921381.518 10 0 60954 17100.00000 0 -8312394.254 -9581245.581 -22084787.249 10 0 60954 18000.00000 0 -5545453.642 -9869966.767 -22817296.037 10 0 60954 18900.00000 0 -2746188.488 -10374237.684 -23104794.272 10 0 60954 19800.00000 0 14943.822 -11086094.474 -22941886.868 10 0 60954 20700.00000 0 2669968.047 -11985340.305 -22331986.941 10 0 60954 21600.00000 0 5155986.758 -13040355.725 -21287230.388 10 0 60954 22500.00000 0 7417553.843 -14209408.569 -19828218.428 10 0 60954 23400.00000 0 9408727.858 -15442406.655 -17983594.697 10 0 60954 24300.00000 0 11094721.322 -16683017.970 -15789466.654 10 0 60954 25200.00000 0 12453079.521 -17871067.816 -13288683.989 10 0 60954 26100.00000 0 13474342.460 -18945111.139 -10529989.414 10 0 60954 27000.00000 0 14162165.522 -19845071.369 -7567059.398 10 0 60954 27900.00000 0 14532897.137 -20514834.832 -4457454.347 10 0 60954 28800.00000 0 14614634.271 -20904692.188 -1261499.157 10 0 60954 29700.00000 0 14445798.189 -20973525.205 1958883.929 10 0 60954 30600.00000 0 14073292.482 -20690648.232 5141367.696 10 0 60954 31500.00000 0 13550322.251 -20037228.447 8224414.944 10 0 60954 32400.00000 0 12933966.832 -19007226.574 11148453.863 10 0 60954 33300.00000 0 12282608.065 -17607819.719 13857012.277 10 0 60954 34200.00000 0 11653321.507 -15859289.208 16297790.310 10 0 60954 35100.00000 0 11099339.011 -13794378.138 18423652.418 10 0 60954 36000.00000 0 10667687.781 -11457144.808 20193521.413 10 0 60954 36900.00000 0 10397103.507 -8901358.455 21573158.814 10 0 60954 37800.00000 0 10316303.883 -6188502.092 22535817.965 10 0 60954 38700.00000 0 10442694.110 -3385463.005 23062758.339 10 0 60954 39600.00000 0 10781558.455 -562004.017 23143611.698 10 0 60954 40500.00000 0 11325772.358 2211882.328 22776593.016 10 0 60954 41400.00000 0 12056048.408 4868629.628 21968551.483 10 0 60954 42300.00000 0 12941707.841 7345655.516 20734859.364 10 0 60954 43200.00000 0 13941947.588 9587717.090 19099139.159 10 0 60954 44100.00000 0 15007552.286 11548966.967 17092832.207 10 0 60954 45000.00000 0 16082981.845 13194624.576 14754614.787 10 0 60954 45900.00000 0 17108748.912 14502192.630 12129670.760 10 0 60954 46800.00000 0 18023987.624 15462166.965 9268832.778 10 0 60954 47700.00000 0 18769106.048 16078208.757 6227607.108 10 0 60954 48600.00000 0 19288410.139 16366770.540 3065099.983 10 0 60954 49500.00000 0 19532587.259 16356190.587 -157134.039 10 0 60954 50400.00000 0 19460942.345 16085293.023 -3376298.924 10 0 60954 51300.00000 0 19043289.693 15601552.575 -6529594.711 10 0 60954 52200.00000 0 18261417.552 14958901.959 -9555460.134 10 0 60954 53100.00000 0 17110060.791 14215275.748 -12394794.099 10 0 60954 54000.00000 0 15597337.998 13429996.384 -14992130.087 10 0 60954 54900.00000 0 13744632.493 12661115.002 -17296738.505 10 0 60954 55800.00000 0 11585920.860 11962821.868 -19263633.539 10 0 60954 56700.00000 0 9166576.551 11383038.119 -20854463.360 10 0 60954 57600.00000 0 6541698.805 10961292.455 -22038265.311 10 0 60954 58500.00000 0 3774037.493 10726973.813 -22792070.811 10 0 60954 59400.00000 0 931601.720 10698034.441 -23101348.224 10 0 60954 60300.00000 0 -1914946.821 10880198.073 -22960275.608 10 0 60954 61200.00000 0 -4695005.895 11266705.868 -22371838.946 10 0 60954 62100.00000 0 -7340736.419 11838609.542 -21347755.196 10 0 60954 63000.00000 0 -9789644.970 12565597.660 -19908223.110 10 0 60954 63900.00000 0 -11986937.954 13407318.359 -18081508.207 10 0 60954 64800.00000 0 -13887550.519 14315140.845 -15903371.513 10 0 60954 65700.00000 0 -15457767.484 15234279.739 -13416354.631 10 0 60954 66600.00000 0 -16676371.101 16106191.340 -10668936.347 10 0 60954 67500.00000 0 -17535270.600 16871139.917 -7714578.288 10 0 60954 68400.00000 0 -18039590.342 17470825.513 -4610678.982 10 0 60954 69300.00000 0 -18207216.012 17850962.647 -1417457.229 10 0 60954 70200.00000 0 -18067820.781 17963701.963 1803213.338 10 0 60954 71100.00000 0 -17661414.740 17769793.845 4988996.026 10 0 60954 72000.00000 0 -17036480.320 17240404.222 8078286.575 10 0 60954 72900.00000 0 -16247773.083 16358507.480 11011390.080 10 0 60954 73800.00000 0 -15353880.555 15119799.089 13731657.805 10 0 60954 74700.00000 0 -14414641.207 13533090.435 16186563.319 10 0 60954 75600.00000 0 -13488530.887 11620169.477 18328698.889 10 0 60954 76500.00000 0 -12630124.894 9415132.607 20116674.618 10 0 60954 77400.00000 0 -11887740.478 6963214.417 21515904.613 10 0 60954 78300.00000 0 -11301356.955 4319162.292 22499266.501 10 0 60954 79200.00000 0 -10900899.251 1545220.979 23047622.655 10 0 60954 80100.00000 0 -10704955.971 -1291191.885 23150193.651 10 0 60954 81000.00000 0 -10719985.499 -4120025.799 22804776.783 10 0 60954 81900.00000 0 -10940043.980 -6871250.501 22017804.842 10 0 60954 82800.00000 0 -11347047.789 -9477514.624 20804242.798 10 0 60954 83700.00000 0 -11911561.345 -11876701.559 19187322.701 10 0 60954 84600.00000 0 -12594079.356 -14014277.730 17198119.826 10 0 60954 85500.00000 0 -13346751.930 -15845336.116 14874975.956 99